Location: Gleizolles
(44.4833°N, 6.7667°E)
Time: 15:40:34
(UTC+00:00)

Explorer 7 - Pass Details

Date: 21 June 2024
Orbit: 465 x 619 km, 50.3° (Epoch: 12 July)

Event Time Altitude Azimuth Distance (km) Brightness Sun altitude
Rises 10:20:43 0° 220° (SW) 2,695 10.4 64.1°
Reaches altitude 10° 10:23:05 10° 213° (SSW) 1,776 9.7 64.3°
Maximum altitude 10:26:51 40° 143° (SE) 773 9.0 64.8°
Drops below altitude 10° 10:30:28 10° 73° (ENE) 1,700 9.6 65.2°
Sets 10:32:41 0° 66° (ENE) 2,562 10.3 65.4°
